User: anonymous   Login
Location: Brachbach
(49.1847°N, 9.7240°E)
Time: 19:08:23
(UTC+00:00)
Language:

Cosmos 1408 - Orbit

View from above orbital plane
View from above orbital plane
View from above satellite
View from above satellite

Ground track
Ground track

The orbit data is extracted from the following two-line orbital elements,

1 13552U 82092A   24202.43202933  .00069945  00000-0  57280-3 0  9991
2 13552  82.5514 206.9007 0012911 189.4232 170.6790 15.70152415293915
Epoch (UTC): 20 July 2024 10:22:07
Eccentricity: 0.0012911
inclination: 82.5514°
perigee height: 350 km
apogee height: 367 km
right ascension of ascending node: 206.9007°
argument of perigee: 189.4232°
revolutions per day: 15.70152415
mean anomaly at epoch: 170.6790°
orbit number at epoch: 29391

The dashed part of the orbit path shows where the satellite is in the earth's shadow,  

DLR